Back to catalog

KUIPER-00296

AliveCommunicationsLEO
NORAD 68595·PAYLOAD·🇺🇸 United States

Launched Apr 4, 2026 from Cape Canaveral Space Force Station

Loading…

Next Passes (next 24 hours)

TLE

FreshSource: CelesTrak SupGP

Epoch: Sep 14, 2026, 17:09 UTC

1 68595C 26072Y   26257.71467593 -.00001359  00000+0 -17789-3 0  2575
2 68595  51.8992 122.2765 0000823 105.7920 107.5666 14.79927009    11

Track KUIPER-00296 in real time with AllMySat

Download on the App Store